#timestamp,LO_Frequency,Hit,StdDev 
1560330015.2,286046995.0,N
1560330035.0,286046999.3,N
1560330035.9,286046999.3,N
1560330055.8,286046999.4,N
1560330075.6,286046998.2,N
1560330095.4,286046999.4,N
1560330115.3,286046999.2,N
1560330135.1,286046996.6,N
1560330155.9,286046997.2,N
1560330175.7,286046995.1,N
1560330195.5,286046995.5,N
1560330215.4,286046995.5,N
1560330235.2,286046995.0,N
1560330255.0,286046995.1,N
1560330255.9,286046995.1,N
1560330275.8,286046995.2,N
1560330295.6,286046996.3,N
1560330315.5,286046996.3,N
1560330335.3,286046995.5,N
1560330355.1,286046996.2,N
1560330375.9,286046996.2,N
1560330395.7,286046993.7,Y
1560330415.5,286046996.7,P
1560330435.4,286046999.2,P
1560330455.2,286046999.4,N
1560330475.1,286046996.9,N
1560330476.0,286046996.9,N
1560330495.8,286046998.4,N
1560330515.6,286047002.0,N
1560330535.5,286047003.3,N
1560330555.3,286047007.6,Y
1560330575.2,286047006.7,P
1560330595.9,286047007.3,N
1560330615.7,286047007.3,N
1560330635.6,286047006.9,N
1560330655.4,286047007.4,N
1560330675.2,286047005.0,N
1560330695.1,286047005.2,N
1560330696.0,286047005.2,N
1560330715.8,286047006.4,N
1560330735.7,286047008.9,Y
1560330755.5,286047002.1,P
1560330775.3,286047002.8,N
1560330795.2,286046999.8,N
1560330815.0,286046998.3,N
1560330815.9,286046998.3,N
1560330835.8,286046998.3,N
1560330855.6,286046999.7,N
1560330875.4,286047000.8,N
1560330895.3,286047000.8,N
1560330915.1,286047000.7,N
1560330935.9,286047000.8,N
1560330955.7,286047002.7,N
1560330975.5,286046999.7,N
1560330995.4,286046999.8,N
1560331015.2,286047000.6,N
1560331035.0,286046998.3,N
1560331035.9,286046998.3,N
1560331055.8,286046998.5,N
1560331075.6,286046997.7,N
1560331095.5,286046997.8,N
1560331115.3,286046996.5,N
1560331135.1,286046999.6,N
1560331155.9,286046995.0,N
1560331175.7,286046993.7,N
1560331195.5,286046993.6,N
1560331215.4,286046994.0,N
1560331235.2,286046995.3,N
1560331255.1,286046998.3,N
1560331256.0,286046998.3,N
1560331275.8,286046998.2,N
1560331295.6,286047002.5,N
1560331315.5,286047002.0,N
1560331335.3,286047002.8,N
1560331355.1,286047002.0,N
1560331375.9,286047001.9,N
1560331395.7,286047002.6,N
1560331415.6,286047004.4,N
1560331435.4,286047003.8,N
1560331455.2,286047003.2,N
1560331475.1,286047004.2,N
1560331476.0,286047004.2,N
1560331495.8,286047004.3,N
1560331515.6,286047002.2,N
1560331535.5,286047000.3,N
1560331555.3,286046998.3,N
1560331575.2,286046997.8,N
1560331595.9,286046995.9,N
1560331615.7,286046992.6,N
1560331635.6,286046991.9,N
1560331655.4,286046992.2,N
1560331675.2,286046991.9,N
1560331695.1,286046992.4,N
1560331696.0,286046992.4,N
1560331715.8,286046990.4,N
1560331735.7,286046990.1,N
1560331755.5,286046993.1,N
1560331775.3,286046991.5,N
1560331795.2,286046991.3,N
1560331815.0,286046986.9,N
1560331815.9,286046986.3,N
1560331835.7,286046989.5,N
1560331855.6,286046987.1,N
1560331875.4,286046988.1,N
1560331895.3,286046987.4,N
1560331915.1,286046985.4,N
1560331916.0,286046985.4,N
1560331935.8,286046987.0,N
1560331955.7,286046985.7,N
1560331975.5,286046986.3,N
1560331995.3,286046985.8,N
1560332015.2,286046986.2,N
1560332035.0,286046984.6,Y
1560332035.9,286046984.6,P
1560332055.8,286046992.8,N
1560332075.6,286046991.4,N
1560332095.4,286046989.2,Y
1560332115.3,286047002.3,P
1560332135.1,286046999.9,N
1560332155.9,286047000.3,N
1560332175.7,286047001.9,N
1560332195.5,286047000.4,N
1560332215.4,286047000.2,N
1560332235.2,286047002.0,N
1560332255.0,286047003.7,N
1560332255.9,286047003.7,N
1560332275.8,286047004.7,N
1560332295.6,286047006.4,N
1560332315.5,286047006.8,N
1560332335.3,286047004.5,N
1560332355.1,286047008.3,N
1560332375.9,286047010.6,N
1560332395.7,286047012.3,N
1560332415.5,286047011.9,N
1560332435.4,286047014.0,N
1560332455.2,286047012.2,N
1560332475.0,286047010.5,N
1560332476.0,286047010.5,N
1560332495.8,286047006.1,N
1560332515.6,286047008.7,N
1560332535.5,286047006.1,N
1560332555.3,286047006.1,N
1560332575.1,286047007.8,N
1560332595.9,286047009.7,N
1560332615.7,286047015.6,Y
1560332635.6,286047012.4,P
1560332655.4,286047010.9,P
1560332675.2,286047014.0,P
1560332695.1,286047013.8,Y
1560332696.0,286047013.8,P
1560332715.8,286047001.6,N
1560332735.7,286047002.7,N
1560332755.5,286047000.6,N
1560332775.3,286047001.6,N
1560332795.2,286047005.7,N
1560332815.0,286047003.1,N
1560332815.9,286047003.1,N
1560332835.7,286047005.6,N
1560332855.6,286047005.2,N
1560332875.4,286047006.4,N
1560332895.3,286047007.9,N
1560332915.1,286047007.8,N
1560332916.0,286047007.8,N
1560332935.8,286047009.0,N
1560332955.7,286047007.6,N
1560332975.5,286047004.2,N
1560332995.3,286047002.2,N
1560333015.2,286047001.9,N
1560333035.0,286047003.5,N
1560333035.9,286047003.5,N
1560333055.8,286047005.9,N
1560333075.6,286047005.3,N
1560333095.4,286047005.4,N
1560333115.3,286047005.2,N
1560333135.1,286047007.5,N
1560333155.8,286047008.8,N
1560333175.7,286047010.5,Y
1560333195.5,286047001.9,P
1560333215.4,286047002.3,N
1560333235.2,286046998.5,N
1560333255.0,286046995.4,N
1560333255.9,286046995.4,N
1560333275.8,286046998.0,N
1560333295.6,286046995.4,N
1560333315.4,286046995.2,N
1560333335.3,286046997.0,N
1560333355.1,286046999.5,N
1560333375.9,286046999.0,N
1560333395.7,286046996.5,N
1560333415.5,286046995.4,N
1560333435.4,286046995.2,N
1560333455.2,286046995.5,N
1560333475.0,286046995.0,N
1560333475.9,286046995.0,N
1560333495.8,286046993.6,N
1560333515.6,286046996.0,N
1560333535.5,286046997.1,N
1560333555.3,286046999.1,N
1560333575.1,286047000.5,N
1560333595.9,286047001.5,N
